"read_dt","SO2 (ppb)","flags","PMT voltage (V)","lamp voltage (V)","lamp intensity (Hz)","internal temp (C)","react chamber temp (C)","sample flow (l/min)","pres (mmHg)","SO2 bkg (ppb)","SO2 coefficient"
2016-02-20 00:00:00,1956E-3,5C000400,-0724,0838,12167,031.3,045.5,0.250,774.9,01.15,0.508
2016-02-20 00:01:00,1875E-3,5C000400,-0724,0839,12145,031.3,045.5,0.250,774.9,01.15,0.508
2016-02-20 00:02:00,2038E-3,5C000400,-0724,0838,12039,031.3,045.5,0.250,774.9,01.15,0.508
2016-02-20 00:03:00,1909E-3,5C000400,-0724,0838,12237,031.3,045.5,0.250,774.9,01.15,0.508
2016-02-20 00:04:00,1923E-3,5C000400,-0724,0839,11923,031.3,045.5,0.250,774.9,01.15,0.508
2016-02-20 00:05:00,1906E-3,5C000400,-0724,0839,12150,031.3,045.5,0.250,775.0,01.15,0.508
2016-02-20 00:06:00,1844E-3,5C000400,-0724,0838,12147,031.3,045.5,0.250,775.0,01.15,0.508
2016-02-20 00:07:00,1850E-3,5C000400,-0724,0838,12097,031.2,045.5,0.250,775.0,01.15,0.508
2016-02-20 00:08:00,1887E-3,5C000400,-0724,0838,12227,031.3,045.5,0.250,775.0,01.15,0.508
2016-02-20 00:09:00,1825E-3,5C000400,-0724,0837,12196,031.1,045.5,0.250,775.0,01.15,0.508
2016-02-20 00:10:00,1834E-3,5C000400,-0724,0839,12213,031.0,045.5,0.250,775.0,01.15,0.508
2016-02-20 00:11:00,1912E-3,5C000400,-0724,0839,12214,031.0,045.5,0.250,775.0,01.15,0.508
2016-02-20 00:12:00,1738E-3,5C000400,-0724,0837,11968,030.9,045.5,0.250,775.1,01.15,0.508
2016-02-20 00:13:00,1913E-3,5C000400,-0724,0837,12159,030.8,045.5,0.250,775.1,01.15,0.508
2016-02-20 00:14:00,1842E-3,5C000400,-0724,0837,12233,030.9,045.5,0.250,775.1,01.15,0.508
2016-02-20 00:15:00,1914E-3,5C000400,-0724,0837,12120,030.9,045.5,0.250,775.0,01.15,0.508
2016-02-20 00:16:00,2057E-3,5C000400,-0724,0838,12147,031.0,045.5,0.250,775.1,01.15,0.508
2016-02-20 00:17:00,1931E-3,5C000400,-0724,0838,12119,031.0,045.5,0.251,775.1,01.15,0.508
2016-02-20 00:18:00,1811E-3,5C000400,-0724,0838,12025,031.0,045.5,0.251,775.1,01.15,0.508
2016-02-20 00:19:00,1883E-3,5C000400,-0724,0838,12150,031.0,045.5,0.251,775.0,01.15,0.508
2016-02-20 00:20:00,1861E-3,5C000400,-0724,0838,11896,031.1,045.5,0.251,775.0,01.15,0.508
2016-02-20 00:21:00,1930E-3,5C000400,-0724,0838,12112,031.1,045.5,0.250,775.1,01.15,0.508
2016-02-20 00:22:00,1773E-3,5C000400,-0724,0838,12134,031.2,045.5,0.251,775.0,01.15,0.508
2016-02-20 00:23:00,1814E-3,5C000400,-0724,0838,12047,031.2,045.5,0.251,775.0,01.15,0.508
2016-02-20 00:24:00,2004E-3,5C000400,-0724,0839,12127,031.2,045.5,0.251,775.0,01.15,0.508
2016-02-20 00:25:00,1939E-3,5C000400,-0724,0838,12244,031.2,045.5,0.250,775.0,01.15,0.508
2016-02-20 00:26:00,1796E-3,5C000400,-0724,0838,12132,031.2,045.5,0.250,775.1,01.15,0.508
2016-02-20 00:27:00,1859E-3,5C000400,-0724,0838,12183,031.2,045.5,0.251,775.0,01.15,0.508
2016-02-20 00:28:00,1859E-3,5C000400,-0724,0839,12191,031.2,045.5,0.251,775.1,01.15,0.508
2016-02-20 00:29:00,1839E-3,5C000400,-0724,0838,11995,031.3,045.5,0.250,775.0,01.15,0.508
2016-02-20 00:30:00,1996E-3,5C000400,-0724,0839,12205,031.3,045.5,0.250,775.0,01.15,0.508
2016-02-20 00:31:00,1807E-3,5C000400,-0724,0838,12017,031.3,045.5,0.250,775.0,01.15,0.508
2016-02-20 00:32:00,1895E-3,5C000400,-0724,0838,12053,031.3,045.6,0.251,775.0,01.15,0.508
2016-02-20 00:33:00,1853E-3,5C000400,-0724,0838,12196,031.3,045.5,0.250,775.0,01.15,0.508
2016-02-20 00:34:00,1731E-3,5C000400,-0724,0838,12072,031.3,045.5,0.250,775.0,01.15,0.508
2016-02-20 00:35:00,1878E-3,5C000400,-0724,0838,12043,031.3,045.5,0.250,775.0,01.15,0.508
2016-02-20 00:36:00,1804E-3,5C000400,-0724,0838,11993,031.3,045.5,0.250,775.0,01.15,0.508
2016-02-20 00:37:00,1935E-3,5C000400,-0724,0839,12101,031.3,045.5,0.250,775.0,01.15,0.508
2016-02-20 00:38:00,1974E-3,5C000400,-0724,0839,12077,031.3,045.5,0.250,775.0,01.15,0.508
2016-02-20 00:39:00,1767E-3,5C000400,-0724,0838,12210,031.3,045.5,0.250,775.0,01.15,0.508
2016-02-20 00:40:00,1953E-3,5C000400,-0724,0838,12216,031.4,045.5,0.250,775.0,01.15,0.508
2016-02-20 00:41:00,2021E-3,5C000400,-0724,0839,12047,031.4,045.5,0.250,775.1,01.15,0.508
2016-02-20 00:42:00,1902E-3,5C000400,-0724,0839,12085,031.4,045.5,0.250,775.0,01.15,0.508
2016-02-20 00:43:00,1813E-3,5C000400,-0724,0838,11954,031.4,045.5,0.251,775.0,01.15,0.508
2016-02-20 00:44:00,1802E-3,5C000400,-0724,0837,11931,031.4,045.6,0.251,775.0,01.15,0.508
2016-02-20 00:45:00,1894E-3,5C000400,-0724,0839,12082,031.4,045.5,0.250,775.1,01.15,0.508
2016-02-20 00:46:00,1854E-3,5C000400,-0724,0838,12153,031.4,045.5,0.250,775.0,01.15,0.508
2016-02-20 00:47:00,1820E-3,5C000400,-0724,0838,12117,031.4,045.5,0.250,775.0,01.15,0.508
2016-02-20 00:48:00,1835E-3,5C000400,-0724,0838,12048,031.3,045.5,0.250,775.0,01.15,0.508
2016-02-20 00:49:00,1810E-3,5C000400,-0724,0839,12153,031.4,045.5,0.250,775.0,01.15,0.508
2016-02-20 00:50:00,1874E-3,5C000400,-0724,0838,12026,031.4,045.5,0.250,775.0,01.15,0.508
2016-02-20 00:51:00,1835E-3,5C000400,-0724,0838,12163,031.4,045.5,0.250,775.0,01.15,0.508
2016-02-20 00:52:00,1835E-3,5C000400,-0724,0838,12038,031.4,045.5,0.250,775.1,01.15,0.508
2016-02-20 00:53:00,1839E-3,5C000400,-0724,0838,12121,031.4,045.6,0.250,775.1,01.15,0.508
2016-02-20 00:54:00,1848E-3,5C000400,-0724,0839,12032,031.4,045.6,0.250,775.1,01.15,0.508
2016-02-20 00:55:00,1807E-3,5C000400,-0724,0838,12114,031.4,045.6,0.250,775.1,01.15,0.508
2016-02-20 00:56:00,1754E-3,5C000400,-0724,0838,12172,031.4,045.5,0.250,775.1,01.15,0.508
2016-02-20 00:57:00,1713E-3,5C000400,-0724,0838,12011,031.4,045.5,0.250,775.1,01.15,0.508
2016-02-20 00:58:00,1867E-3,5C000400,-0724,0838,12158,031.4,045.5,0.249,775.1,01.15,0.508
2016-02-20 00:59:00,1740E-3,5C000400,-0724,0839,12219,031.4,045.5,0.250,775.1,01.15,0.508
2016-02-20 01:00:00,1793E-3,5C000400,-0724,0838,12096,031.4,045.5,0.250,775.1,01.15,0.508
2016-02-20 01:01:00,1824E-3,5C000400,-0724,0838,12172,031.4,045.6,0.250,775.1,01.15,0.508
2016-02-20 01:02:00,1873E-3,5C000400,-0724,0839,12086,031.4,045.6,0.250,775.1,01.15,0.508
2016-02-20 01:03:00,1868E-3,5C000400,-0724,0838,12120,031.4,045.5,0.250,775.1,01.15,0.508
2016-02-20 01:04:00,1830E-3,5C000400,-0724,0839,12113,031.4,045.5,0.250,775.1,01.15,0.508
2016-02-20 01:05:00,1824E-3,5C000400,-0724,0838,12181,031.4,045.5,0.250,775.1,01.15,0.508
2016-02-20 01:06:00,1869E-3,5C000400,-0724,0838,12062,031.4,045.5,0.250,775.1,01.15,0.508
2016-02-20 01:07:00,1894E-3,5C000400,-0724,0839,12086,031.4,045.5,0.250,775.1,01.15,0.508
2016-02-20 01:08:00,1788E-3,5C000400,-0724,0838,12024,031.4,045.5,0.250,775.1,01.15,0.508
2016-02-20 01:09:00,1867E-3,5C000400,-0724,0839,12241,031.4,045.5,0.250,775.1,01.15,0.508
2016-02-20 01:10:00,1709E-3,5C000400,-0724,0838,12177,031.4,045.5,0.250,775.1,01.15,0.508
2016-02-20 01:11:00,1878E-3,5C000400,-0724,0838,12116,031.4,045.5,0.250,775.1,01.15,0.508
2016-02-20 01:12:00,1923E-3,5C000400,-0724,0838,11944,031.4,045.5,0.250,775.1,01.15,0.508
2016-02-20 01:13:00,1822E-3,5C000400,-0724,0839,12197,031.3,045.5,0.250,775.1,01.15,0.508
2016-02-20 01:14:00,1924E-3,5C000400,-0724,0838,12124,031.4,045.5,0.250,775.1,01.15,0.508
2016-02-20 01:15:00,1709E-3,5C000400,-0724,0839,12186,031.4,045.5,0.250,775.1,01.15,0.508
2016-02-20 01:16:00,1914E-3,5C000400,-0724,0838,12276,031.3,045.5,0.250,775.1,01.15,0.508
2016-02-20 01:17:00,1973E-3,5C000400,-0724,0838,12168,031.4,045.5,0.250,775.1,01.15,0.508
2016-02-20 01:18:00,1804E-3,5C000400,-0724,0838,12042,031.4,045.5,0.250,775.1,01.15,0.508
2016-02-20 01:19:00,1824E-3,5C000400,-0724,0838,12172,031.3,045.5,0.250,775.1,01.15,0.508
2016-02-20 01:20:00,1763E-3,5C000400,-0724,0838,12122,031.3,045.5,0.250,775.2,01.15,0.508
2016-02-20 01:21:00,1941E-3,5C000400,-0724,0839,12112,031.3,045.5,0.250,775.1,01.15,0.508
2016-02-20 01:22:00,1899E-3,5C000400,-0724,0838,12152,031.3,045.5,0.250,775.1,01.15,0.508
2016-02-20 01:23:00,1898E-3,5C000400,-0724,0839,12115,031.3,045.5,0.250,775.2,01.15,0.508
2016-02-20 01:24:00,1813E-3,5C000400,-0724,0837,12145,031.3,045.5,0.250,775.2,01.15,0.508
2016-02-20 01:25:00,1860E-3,5C000400,-0724,0838,12016,031.3,045.5,0.250,775.1,01.15,0.508
2016-02-20 01:26:00,1844E-3,5C000400,-0724,0838,12046,031.3,045.5,0.250,775.1,01.15,0.508
2016-02-20 01:27:00,1779E-3,5C000400,-0724,0838,12060,031.3,045.5,0.250,775.1,01.15,0.508
2016-02-20 01:28:00,1987E-3,5C000400,-0724,0838,12099,031.3,045.5,0.250,775.1,01.15,0.508
2016-02-20 01:29:00,1867E-3,5C000400,-0724,0838,12156,031.3,045.5,0.250,775.1,01.15,0.508
2016-02-20 01:30:00,1883E-3,5C000400,-0724,0838,12119,031.3,045.5,0.250,775.2,01.15,0.508
2016-02-20 01:31:00,1917E-3,5C000400,-0724,0838,12189,031.3,045.5,0.250,775.2,01.15,0.508
2016-02-20 01:32:00,1865E-3,5C000400,-0724,0838,12033,031.3,045.5,0.250,775.2,01.15,0.508
2016-02-20 01:33:00,1889E-3,5C000400,-0724,0838,12263,031.3,045.5,0.250,775.2,01.15,0.508
2016-02-20 01:34:00,1836E-3,5C000400,-0724,0838,12142,031.3,045.5,0.250,775.2,01.15,0.508
2016-02-20 01:35:00,1853E-3,5C000400,-0724,0839,12118,031.3,045.5,0.250,775.2,01.15,0.508
2016-02-20 01:36:00,1834E-3,5C000400,-0724,0838,12071,031.3,045.5,0.250,775.1,01.15,0.508
2016-02-20 01:37:00,1803E-3,5C000400,-0724,0838,12161,031.3,045.5,0.250,775.1,01.15,0.508
2016-02-20 01:38:00,1833E-3,5C000400,-0724,0837,12148,031.2,045.5,0.250,775.1,01.15,0.508
2016-02-20 01:39:00,1791E-3,5C000400,-0724,0839,12071,031.1,045.5,0.250,775.2,01.15,0.508
2016-02-20 01:40:00,1897E-3,5C000400,-0724,0838,12135,031.0,045.5,0.250,775.2,01.15,0.508
2016-02-20 01:41:00,1876E-3,5C000400,-0724,0838,12211,031.1,045.6,0.250,775.2,01.15,0.508
2016-02-20 01:42:00,1830E-3,5C000400,-0724,0839,12088,031.0,045.5,0.251,775.1,01.15,0.508
2016-02-20 01:43:00,1768E-3,5C000400,-0724,0839,11999,031.1,045.5,0.251,775.2,01.15,0.508
2016-02-20 01:44:00,1886E-3,5C000400,-0724,0839,12143,031.1,045.5,0.251,775.2,01.15,0.508
2016-02-20 01:45:00,1771E-3,5C000400,-0724,0838,12141,031.1,045.5,0.250,775.2,01.15,0.508
2016-02-20 01:46:00,1878E-3,5C000400,-0724,0838,12202,031.1,045.5,0.250,775.2,01.15,0.508
2016-02-20 01:47:00,1810E-3,5C000400,-0724,0837,12041,031.1,045.5,0.250,775.2,01.15,0.508
2016-02-20 01:48:00,1845E-3,5C000400,-0724,0838,12056,031.1,045.5,0.250,775.2,01.15,0.508
2016-02-20 01:49:00,1733E-3,5C000400,-0724,0838,12122,031.1,045.5,0.251,775.2,01.15,0.508
2016-02-20 01:50:00,1704E-3,5C000400,-0724,0838,12123,031.1,045.5,0.250,775.2,01.15,0.508
2016-02-20 01:51:00,1879E-3,5C000400,-0724,0838,12129,031.1,045.5,0.250,775.2,01.15,0.508
2016-02-20 01:52:00,1781E-3,5C000400,-0724,0838,12226,031.1,045.5,0.250,775.2,01.15,0.508
2016-02-20 01:53:00,1854E-3,5C000400,-0724,0839,12054,031.1,045.5,0.250,775.2,01.15,0.508
2016-02-20 01:54:00,1799E-3,5C000400,-0724,0837,11979,031.1,045.5,0.251,775.3,01.15,0.508
2016-02-20 01:55:00,1742E-3,5C000400,-0724,0838,12131,031.1,045.5,0.251,775.3,01.15,0.508
2016-02-20 01:56:00,1787E-3,5C000400,-0724,0838,12031,031.1,045.5,0.250,775.3,01.15,0.508
2016-02-20 01:57:00,1876E-3,5C000400,-0724,0838,12120,031.1,045.5,0.250,775.3,01.15,0.508
2016-02-20 01:58:00,1835E-3,5C000400,-0724,0838,12127,031.1,045.5,0.250,775.3,01.15,0.508
2016-02-20 01:59:00,1734E-3,5C000400,-0724,0838,12158,031.1,045.5,0.250,775.3,01.15,0.508
2016-02-20 02:00:00,1719E-3,5C000400,-0724,0838,12174,031.1,045.5,0.251,775.3,01.15,0.508
2016-02-20 02:01:00,1894E-3,5C000400,-0724,0838,12173,031.1,045.5,0.250,775.3,01.15,0.508
2016-02-20 02:02:00,1760E-3,5C000400,-0724,0838,12144,031.1,045.5,0.250,775.3,01.15,0.508
2016-02-20 02:03:00,1891E-3,5C000400,-0724,0838,12184,031.1,045.5,0.250,775.3,01.15,0.508
2016-02-20 02:04:00,1810E-3,5C000400,-0724,0838,12008,031.1,045.5,0.250,775.3,01.15,0.508
2016-02-20 02:05:00,1909E-3,5C000400,-0724,0838,12259,031.1,045.5,0.251,775.2,01.15,0.508
2016-02-20 02:06:00,1806E-3,5C000400,-0724,0838,11960,031.1,045.5,0.250,775.2,01.15,0.508
2016-02-20 02:07:00,1817E-3,5C000400,-0724,0838,12092,031.1,045.5,0.250,775.2,01.15,0.508
2016-02-20 02:08:00,1727E-3,5C000400,-0724,0838,12156,031.0,045.5,0.250,775.2,01.15,0.508
2016-02-20 02:09:00,1776E-3,5C000400,-0724,0838,12128,031.0,045.5,0.250,775.2,01.15,0.508
2016-02-20 02:10:00,1886E-3,5C000400,-0724,0837,12168,030.9,045.5,0.251,775.3,01.15,0.508
2016-02-20 02:11:00,1790E-3,5C000400,-0724,0837,12177,030.8,045.5,0.251,775.3,01.15,0.508
2016-02-20 02:12:00,1666E-3,5C000400,-0724,0838,12061,030.7,045.5,0.251,775.3,01.15,0.508
2016-02-20 02:13:00,1800E-3,5C000400,-0724,0839,12026,030.7,045.5,0.251,775.3,01.15,0.508
2016-02-20 02:14:00,1848E-3,5C000400,-0724,0838,12005,030.6,045.5,0.251,775.3,01.15,0.508
2016-02-20 02:15:00,1863E-3,5C000400,-0724,0838,12079,030.7,045.5,0.251,775.3,01.15,0.508
2016-02-20 02:16:00,1831E-3,5C000400,-0724,0838,11956,030.7,045.5,0.251,775.3,01.15,0.508
2016-02-20 02:17:00,1853E-3,5C000400,-0724,0838,12203,030.8,045.5,0.251,775.3,01.15,0.508
2016-02-20 02:18:00,1687E-3,5C000400,-0724,0838,12157,030.8,045.5,0.251,775.3,01.15,0.508
2016-02-20 02:19:00,1851E-3,5C000400,-0724,0838,12058,030.8,045.5,0.251,775.3,01.15,0.508
2016-02-20 02:20:00,1858E-3,5C000400,-0724,0837,12215,030.8,045.5,0.251,775.3,01.15,0.508
2016-02-20 02:21:00,1886E-3,5C000400,-0724,0839,12212,030.8,045.5,0.250,775.3,01.15,0.508
2016-02-20 02:22:00,1866E-3,5C000400,-0724,0838,12040,030.9,045.5,0.251,775.3,01.15,0.508
2016-02-20 02:23:00,1783E-3,5C000400,-0724,0838,11933,030.9,045.5,0.251,775.4,01.15,0.508
2016-02-20 02:24:00,1944E-3,5C000400,-0724,0838,11976,030.9,045.5,0.251,775.4,01.15,0.508
2016-02-20 02:25:00,1958E-3,5C000400,-0724,0838,12121,030.9,045.5,0.251,775.3,01.15,0.508
2016-02-20 02:26:00,1826E-3,5C000400,-0724,0838,12094,030.9,045.5,0.250,775.4,01.15,0.508
2016-02-20 02:27:00,1801E-3,5C000400,-0724,0838,12237,030.9,045.5,0.251,775.4,01.15,0.508
2016-02-20 02:28:00,1887E-3,5C000400,-0724,0838,12164,031.0,045.5,0.251,775.4,01.15,0.508
2016-02-20 02:29:00,1813E-3,5C000400,-0724,0838,12133,031.0,045.5,0.251,775.3,01.15,0.508
2016-02-20 02:30:00,1867E-3,5C000400,-0724,0838,11912,030.9,045.5,0.251,775.4,01.15,0.508
2016-02-20 02:31:00,1800E-3,5C000400,-0724,0839,12124,030.9,045.5,0.250,775.4,01.15,0.508
2016-02-20 02:32:00,1955E-3,5C000400,-0724,0838,12033,030.9,045.5,0.251,775.4,01.15,0.508
2016-02-20 02:33:00,1744E-3,5C000400,-0724,0838,12129,030.9,045.5,0.251,775.4,01.15,0.508
2016-02-20 02:34:00,1899E-3,5C000400,-0724,0838,12174,031.0,045.5,0.251,775.4,01.15,0.508
2016-02-20 02:35:00,1823E-3,5C000400,-0724,0838,11971,031.0,045.5,0.251,775.4,01.15,0.508
2016-02-20 02:36:00,1821E-3,5C000400,-0724,0837,12221,031.0,045.5,0.250,775.4,01.15,0.508
2016-02-20 02:37:00,1761E-3,5C000400,-0724,0838,12048,031.0,045.5,0.251,775.4,01.15,0.508
2016-02-20 02:38:00,1820E-3,5C000400,-0724,0839,12211,031.0,045.5,0.251,775.4,01.15,0.508
2016-02-20 02:39:00,1748E-3,5C000400,-0724,0838,12194,031.0,045.5,0.251,775.4,01.15,0.508
2016-02-20 02:40:00,1871E-3,5C000400,-0724,0838,12024,030.9,045.5,0.251,775.4,01.15,0.508
2016-02-20 02:41:00,1894E-3,5C000400,-0724,0838,12088,030.8,045.5,0.250,775.5,01.15,0.508
2016-02-20 02:42:00,1801E-3,5C000400,-0724,0838,12126,030.7,045.5,0.251,775.4,01.15,0.508
2016-02-20 02:43:00,1805E-3,5C000400,-0724,0838,12124,030.7,045.5,0.251,775.4,01.15,0.508
2016-02-20 02:44:00,1900E-3,5C000400,-0724,0837,12169,030.6,045.5,0.251,775.4,01.15,0.508
2016-02-20 02:45:00,1727E-3,5C000400,-0724,0838,12070,030.7,045.5,0.251,775.5,01.15,0.508
2016-02-20 02:46:00,1813E-3,5C000400,-0724,0838,11930,030.6,045.5,0.251,775.4,01.15,0.508
2016-02-20 02:47:00,1777E-3,5C000400,-0724,0838,12006,030.7,045.5,0.251,775.5,01.15,0.508
2016-02-20 02:48:00,1844E-3,5C000400,-0724,0838,12082,030.7,045.5,0.251,775.4,01.15,0.508
2016-02-20 02:49:00,1823E-3,5C000400,-0724,0838,12181,030.7,045.5,0.251,775.5,01.15,0.508
2016-02-20 02:50:00,1840E-3,5C000400,-0724,0838,12065,030.7,045.5,0.251,775.4,01.15,0.508
2016-02-20 02:51:00,1831E-3,5C000400,-0724,0837,12187,030.7,045.5,0.251,775.4,01.15,0.508
2016-02-20 02:52:00,1866E-3,5C000400,-0724,0838,12110,030.6,045.5,0.251,775.5,01.15,0.508
2016-02-20 02:53:00,1795E-3,5C000400,-0724,0838,12128,030.7,045.5,0.251,775.5,01.15,0.508
2016-02-20 02:54:00,1815E-3,5C000400,-0724,0839,12269,030.8,045.5,0.251,775.5,01.15,0.508
2016-02-20 02:55:00,1842E-3,5C000400,-0724,0838,12058,030.8,045.5,0.251,775.5,01.15,0.508
2016-02-20 02:56:00,2012E-3,5C000400,-0724,0838,11961,030.8,045.5,0.251,775.5,01.15,0.508
2016-02-20 02:57:00,1779E-3,5C000400,-0724,0838,12101,030.8,045.5,0.251,775.5,01.15,0.508
2016-02-20 02:58:00,1952E-3,5C000400,-0724,0838,12007,030.8,045.5,0.251,775.5,01.15,0.508
2016-02-20 02:59:00,1908E-3,5C000400,-0724,0839,12188,030.8,045.5,0.251,775.5,01.15,0.508
2016-02-20 03:00:00,1958E-3,5C000400,-0724,0838,12051,030.8,045.5,0.251,775.5,01.15,0.508
2016-02-20 03:01:00,1876E-3,5C000400,-0724,0838,12189,030.8,045.5,0.251,775.6,01.15,0.508
2016-02-20 03:02:00,1838E-3,5C000400,-0724,0838,12241,030.8,045.5,0.251,775.6,01.15,0.508
2016-02-20 03:03:00,1794E-3,5C000400,-0724,0837,11904,030.7,045.5,0.251,775.6,01.15,0.508
2016-02-20 03:04:00,1707E-3,5C000400,-0724,0838,12178,030.6,045.5,0.251,775.6,01.15,0.508
2016-02-20 03:05:00,1870E-3,5C000400,-0724,0838,12077,030.5,045.5,0.251,775.6,01.15,0.508
2016-02-20 03:06:00,1853E-3,5C000400,-0724,0838,12052,030.5,045.5,0.251,775.6,01.15,0.508
2016-02-20 03:07:00,1960E-3,5C000400,-0724,0839,12077,030.4,045.5,0.251,775.6,01.15,0.508
2016-02-20 03:08:00,1898E-3,5C000400,-0724,0838,12090,030.5,045.5,0.251,775.6,01.15,0.508
2016-02-20 03:09:00,1872E-3,5C000400,-0724,0838,12261,030.5,045.5,0.252,775.6,01.15,0.508
2016-02-20 03:10:00,1729E-3,5C000400,-0724,0838,12051,030.6,045.5,0.251,775.6,01.15,0.508
2016-02-20 03:11:00,1872E-3,5C000400,-0724,0838,12103,030.6,045.5,0.251,775.6,01.15,0.508
2016-02-20 03:12:00,1808E-3,5C000400,-0724,0838,12053,030.7,045.5,0.251,775.6,01.15,0.508
2016-02-20 03:13:00,1864E-3,5C000400,-0724,0838,12103,030.7,045.5,0.251,775.6,01.15,0.508
2016-02-20 03:14:00,1798E-3,5C000400,-0724,0838,12082,030.7,045.5,0.252,775.6,01.15,0.508
2016-02-20 03:15:00,1880E-3,5C000400,-0724,0839,12032,030.8,045.5,0.251,775.6,01.15,0.508
2016-02-20 03:16:00,1851E-3,5C000400,-0724,0838,12079,030.8,045.5,0.251,775.6,01.15,0.508
2016-02-20 03:17:00,1875E-3,5C000400,-0724,0838,12128,030.8,045.5,0.251,775.6,01.15,0.508
2016-02-20 03:18:00,1838E-3,5C000400,-0724,0838,12157,030.8,045.5,0.251,775.6,01.15,0.508
2016-02-20 03:19:00,1720E-3,5C000400,-0724,0838,12052,030.8,045.5,0.251,775.6,01.15,0.508
2016-02-20 03:20:00,1783E-3,5C000400,-0724,0838,12179,030.8,045.5,0.251,775.6,01.15,0.508
2016-02-20 03:21:00,1910E-3,5C000400,-0724,0839,12179,030.8,045.5,0.251,775.6,01.15,0.508
2016-02-20 03:22:00,1851E-3,5C000400,-0724,0838,12162,030.7,045.5,0.251,775.6,01.15,0.508
2016-02-20 03:23:00,1715E-3,5C000400,-0724,0837,12088,030.6,045.5,0.251,775.6,01.15,0.508
2016-02-20 03:24:00,1800E-3,5C000400,-0724,0838,11994,030.5,045.5,0.251,775.6,01.15,0.508
2016-02-20 03:25:00,1818E-3,5C000400,-0724,0839,12218,030.5,045.5,0.251,775.6,01.15,0.508
2016-02-20 03:26:00,1718E-3,5C000400,-0724,0837,12107,030.5,045.5,0.251,775.6,01.15,0.508
2016-02-20 03:27:00,1885E-3,5C000400,-0724,0837,12064,030.4,045.5,0.251,775.6,01.15,0.508
2016-02-20 03:28:00,1771E-3,5C000400,-0724,0838,12137,030.4,045.5,0.251,775.6,01.15,0.508
2016-02-20 03:29:00,1944E-3,5C000400,-0724,0837,12144,030.5,045.5,0.251,775.6,01.15,0.508
2016-02-20 03:30:00,1971E-3,5C000400,-0724,0838,12177,030.5,045.5,0.251,775.6,01.15,0.508
2016-02-20 03:31:00,1817E-3,5C000400,-0724,0838,12227,030.6,045.5,0.252,775.6,01.15,0.508
2016-02-20 03:32:00,1731E-3,5C000400,-0724,0838,12054,030.6,045.5,0.251,775.6,01.15,0.508
2016-02-20 03:33:00,1787E-3,5C000400,-0724,0838,11907,030.6,045.5,0.251,775.6,01.15,0.508
2016-02-20 03:34:00,1730E-3,5C000400,-0724,0837,12066,030.6,045.5,0.251,775.6,01.15,0.508
2016-02-20 03:35:00,1819E-3,5C000400,-0724,0838,12205,030.6,045.5,0.252,775.7,01.15,0.508
2016-02-20 03:36:00,1778E-3,5C000400,-0724,0838,12197,030.7,045.5,0.252,775.6,01.15,0.508
2016-02-20 03:37:00,1875E-3,5C000400,-0724,0838,12155,030.7,045.5,0.251,775.6,01.15,0.508
2016-02-20 03:38:00,1781E-3,5C000400,-0724,0839,12118,030.8,045.5,0.251,775.6,01.15,0.508
2016-02-20 03:39:00,1867E-3,5C000400,-0724,0838,12105,030.8,045.5,0.251,775.6,01.15,0.508
2016-02-20 03:40:00,1776E-3,5C000400,-0724,0838,12195,030.8,045.5,0.252,775.7,01.15,0.508
2016-02-20 03:41:00,1812E-3,5C000400,-0724,0838,12064,030.8,045.5,0.251,775.7,01.15,0.508
2016-02-20 03:42:00,1859E-3,5C000400,-0724,0838,12076,030.8,045.5,0.251,775.6,01.15,0.508
2016-02-20 03:43:00,1903E-3,5C000400,-0724,0838,12105,030.8,045.5,0.251,775.6,01.15,0.508
2016-02-20 03:44:00,1733E-3,5C000400,-0724,0838,12217,030.7,045.5,0.251,775.6,01.15,0.508
2016-02-20 03:45:00,1881E-3,5C000400,-0724,0838,12088,030.6,045.5,0.251,775.7,01.15,0.508
2016-02-20 03:46:00,1742E-3,5C000400,-0724,0837,11982,030.6,045.5,0.251,775.7,01.15,0.508
2016-02-20 03:47:00,1955E-3,5C000400,-0724,0838,12028,030.6,045.5,0.251,775.7,01.15,0.508
2016-02-20 03:48:00,1746E-3,5C000400,-0724,0838,12221,030.5,045.5,0.251,775.6,01.15,0.508
2016-02-20 03:49:00,1836E-3,5C000400,-0724,0838,11970,030.5,045.5,0.251,775.6,01.15,0.508
2016-02-20 03:50:00,1843E-3,5C000400,-0724,0837,12253,030.4,045.5,0.251,775.6,01.15,0.508
2016-02-20 03:51:00,1732E-3,5C000400,-0724,0838,12064,030.4,045.5,0.251,775.6,01.15,0.508
2016-02-20 03:52:00,1747E-3,5C000400,-0724,0838,12174,030.4,045.5,0.251,775.6,01.15,0.508
2016-02-20 03:53:00,1936E-3,5C000400,-0724,0838,12191,030.3,045.5,0.251,775.7,01.15,0.508
2016-02-20 03:54:00,1855E-3,5C000400,-0724,0838,12126,030.3,045.5,0.252,775.7,01.15,0.508
2016-02-20 03:55:00,1790E-3,5C000400,-0724,0838,12177,030.3,045.5,0.252,775.7,01.15,0.508
2016-02-20 03:56:00,1789E-3,5C000400,-0724,0838,12072,030.4,045.5,0.252,775.7,01.15,0.508
2016-02-20 03:57:00,2013E-3,5C000400,-0724,0837,12067,030.4,045.5,0.251,775.7,01.15,0.508
2016-02-20 03:58:00,1821E-3,5C000400,-0724,0838,12109,030.5,045.5,0.251,775.7,01.15,0.508
2016-02-20 03:59:00,1847E-3,5C000400,-0724,0839,12159,030.5,045.5,0.252,775.7,01.15,0.508
2016-02-20 04:00:00,1799E-3,5C000400,-0724,0838,12095,030.5,045.5,0.252,775.7,01.15,0.508
2016-02-20 04:01:00,1748E-3,5C000400,-0724,0838,11872,030.5,045.5,0.252,775.7,01.15,0.508
2016-02-20 04:02:00,1785E-3,5C000400,-0724,0838,12123,030.5,045.5,0.251,775.7,01.15,0.508
2016-02-20 04:03:00,1767E-3,5C000400,-0724,0838,12167,030.4,045.5,0.251,775.7,01.15,0.508
2016-02-20 04:04:00,1909E-3,5C000400,-0724,0838,12154,030.4,045.5,0.252,775.7,01.15,0.508
2016-02-20 04:05:00,1852E-3,5C000400,-0724,0838,12052,030.3,045.5,0.252,775.7,01.15,0.508
2016-02-20 04:06:00,1771E-3,5C000400,-0724,0837,12151,030.3,045.5,0.252,775.7,01.15,0.508
2016-02-20 04:07:00,1871E-3,5C000400,-0724,0837,12183,030.3,045.5,0.252,775.7,01.15,0.508
2016-02-20 04:08:00,1934E-3,5C000400,-0724,0837,12203,030.4,045.5,0.251,775.7,01.15,0.508
2016-02-20 04:09:00,1795E-3,5C000400,-0724,0838,12139,030.4,045.5,0.252,775.7,01.15,0.508
2016-02-20 04:10:00,1908E-3,5C000400,-0724,0837,12083,030.4,045.5,0.252,775.7,01.15,0.508
2016-02-20 04:11:00,1777E-3,5C000400,-0724,0839,12281,030.5,045.5,0.252,775.7,01.15,0.508
2016-02-20 04:12:00,1818E-3,5C000400,-0724,0838,12088,030.5,045.5,0.252,775.7,01.15,0.508
2016-02-20 04:13:00,1722E-3,5C000400,-0724,0838,12076,030.5,045.5,0.251,775.7,01.15,0.508
2016-02-20 04:14:00,1760E-3,5C000400,-0724,0837,12139,030.6,045.5,0.252,775.7,01.15,0.508
2016-02-20 04:15:00,1927E-3,5C000400,-0724,0838,12056,030.5,045.5,0.252,775.7,01.15,0.508
2016-02-20 04:16:00,1877E-3,5C000400,-0724,0837,11981,030.5,045.5,0.252,775.7,01.15,0.508
2016-02-20 04:17:00,1933E-3,5C000400,-0724,0837,11992,030.4,045.5,0.251,775.7,01.15,0.508
2016-02-20 04:18:00,1780E-3,5C000400,-0724,0838,12111,030.3,045.5,0.251,775.8,01.15,0.508
2016-02-20 04:19:00,1786E-3,5C000400,-0724,0837,11963,030.3,045.5,0.252,775.8,01.15,0.508
2016-02-20 04:20:00,1971E-3,5C000400,-0724,0838,12134,030.3,045.5,0.252,775.7,01.15,0.508